TimeCDT,TemperatureF,Dew PointF,Humidity,Sea Level PressureIn,VisibilityMPH,Wind Direction,Wind SpeedMPH,Gust SpeedMPH,PrecipitationIn,Events,Conditions,WindDirDegrees,DateUTC
12:21 AM,46.4,44.6,93,30.11,10.0,North,11.5,-,N/A,,Overcast,10,2012-10-27 05:21:00
12:56 AM,45.9,43.9,93,30.10,10.0,North,9.2,-,0.00,Rain,Light Rain,350,2012-10-27 05:56:00
1:56 AM,45.9,45.0,97,30.08,8.0,North,10.4,-,0.02,Rain,Light Rain,350,2012-10-27 06:56:00
2:30 AM,46.4,44.6,93,30.09,5.0,North,9.2,-,0.00,Rain,Light Rain,350,2012-10-27 07:30:00
2:56 AM,45.9,45.0,97,30.08,4.0,North,11.5,-,0.02,Rain,Light Rain,350,2012-10-27 07:56:00
3:34 AM,46.4,44.6,93,30.07,7.0,North,11.5,-,0.00,Rain,Light Rain,360,2012-10-27 08:34:00
3:56 AM,45.9,45.0,97,30.07,10.0,North,9.2,-,0.00,,Overcast,360,2012-10-27 08:56:00
4:56 AM,45.9,43.9,93,30.08,10.0,North,12.7,18.4,N/A,,Overcast,360,2012-10-27 09:56:00
5:11 AM,46.4,44.6,93,30.08,10.0,North,16.1,-,N/A,,Overcast,360,2012-10-27 10:11:00
5:56 AM,45.9,43.9,93,30.08,9.0,North,10.4,20.7,N/A,,Overcast,10,2012-10-27 10:56:00
6:56 AM,45.0,43.9,96,30.09,2.0,North,13.8,-,0.00,Rain,Light Rain,10,2012-10-27 11:56:00
7:56 AM,45.0,43.9,96,30.10,3.0,North,13.8,-,0.00,,Overcast,360,2012-10-27 12:56:00
10:56 AM,45.9,43.0,90,30.10,10.0,NNE,11.5,-,N/A,,Overcast,30,2012-10-27 15:56:00
11:46 AM,46.4,44.6,93,30.09,10.0,North,9.2,-,N/A,,Overcast,10,2012-10-27 16:46:00
12:56 PM,48.9,43.9,83,30.06,10.0,North,10.4,-,N/A,,Overcast,10,2012-10-27 17:56:00
1:06 PM,48.2,44.6,87,30.07,10.0,North,10.4,-,N/A,,Overcast,360,2012-10-27 18:06:00
1:56 PM,50.9,43.9,77,30.04,10.0,North,13.8,-,N/A,,Overcast,10,2012-10-27 18:56:00
2:56 PM,50.9,43.9,77,30.04,10.0,North,12.7,-,N/A,,Overcast,360,2012-10-27 19:56:00
3:56 PM,50.9,45.0,80,30.03,10.0,North,11.5,-,N/A,,Overcast,10,2012-10-27 20:56:00
4:56 PM,52.0,45.9,80,30.03,10.0,North,8.1,-,N/A,,Overcast,10,2012-10-27 21:56:00
5:27 PM,51.8,44.6,76,30.04,10.0,NNE,12.7,-,N/A,,Overcast,20,2012-10-27 22:27:00
5:56 PM,52.0,45.0,77,30.04,10.0,North,11.5,-,N/A,,Overcast,10,2012-10-27 22:56:00
6:56 PM,52.0,45.0,77,30.06,10.0,North,9.2,-,N/A,,Overcast,10,2012-10-27 23:56:00
7:14 PM,51.8,44.6,76,30.06,10.0,NNE,12.7,-,N/A,,Overcast,20,2012-10-28 00:14:00
7:34 PM,51.8,44.6,76,30.06,10.0,NNE,13.8,-,N/A,,Overcast,20,2012-10-28 00:34:00
7:56 PM,52.0,43.9,74,30.06,10.0,NNE,13.8,-,N/A,,Overcast,30,2012-10-28 00:56:00
8:56 PM,52.0,43.9,74,30.05,10.0,NNE,11.5,-,N/A,,Overcast,30,2012-10-28 01:56:00
9:56 PM,52.0,43.9,74,30.04,10.0,North,11.5,-,N/A,,Overcast,10,2012-10-28 02:56:00
10:56 PM,50.9,41.9,71,30.03,10.0,North,11.5,-,N/A,,Overcast,10,2012-10-28 03:56:00
11:56 PM,50.9,39.9,66,30.02,10.0,North,11.5,-,N/A,,Overcast,10,2012-10-28 04:56:00